Location: Grange Verzio
(44.5000°N, 6.9833°E)
Time: 16:43:20
(UTC+00:00)

BlueWalker 3 - Visible Passes

Search period start: 05 June 2023 00:00
Search period end: 15 June 2023 00:00
Orbit: 494 x 513 km, 53.2° (Epoch: 05 June)

Date Brightness Start Highest point End Pass type
(mag) Time Alt. Az. Time Alt. Az. Time Alt. Az.
05 Jun 2.7 00:21:37 10° WNW 00:24:20 42° WNW 00:24:20 42° WNW visible
05 Jun 4.4 20:43:51 10° NW 20:46:56 22° N 20:50:01 10° NE visible
05 Jun 3.6 22:22:47 10° NW 22:26:18 32° NNE 22:29:08 14° ENE visible
06 Jun 2.9 00:01:12 10° WNW 00:03:46 38° WNW 00:03:46 38° WNW visible
06 Jun 4.4 20:23:27 10° NW 20:26:32 22° N 20:29:37 10° NE visible
06 Jun 3.6 22:02:22 10° NW 22:05:54 32° NNE 22:08:44 14° E visible
06 Jun 2.9 23:40:48 10° WNW 23:43:23 38° WNW 23:43:23 38° WNW visible
07 Jun 4.3 20:03:03 10° NW 20:06:07 22° N 20:09:11 10° NE visible
07 Jun 3.5 21:41:56 10° NW 21:45:29 33° NNE 21:48:27 13° E visible
07 Jun 2.8 23:20:22 10° WNW 23:23:06 41° W 23:23:06 41° W visible
08 Jun 3.5 21:21:30 10° NW 21:25:02 33° NNE 21:28:15 12° E visible
08 Jun 2.6 22:59:56 10° WNW 23:02:54 46° W 23:02:54 46° W visible
09 Jun 3.4 21:01:03 10° NW 21:04:36 34° NNE 21:08:07 10° E visible
09 Jun 2.3 22:39:30 10° WNW 22:42:47 52° WSW 22:42:47 52° WSW visible
10 Jun 3.3 20:40:36 10° NW 20:44:09 34° NNE 20:47:43 10° E visible
10 Jun 2.1 22:19:03 10° WNW 22:22:42 55° SW 22:22:42 55° SW visible
11 Jun 3.3 20:20:07 10° NW 20:23:41 35° NNE 20:27:16 10° E visible
11 Jun 2.1 21:58:35 10° WNW 22:02:21 54° SW 22:02:40 52° SSW visible
12 Jun 3.3 19:59:38 10° NW 20:03:13 35° NNE 20:06:47 10° E visible
12 Jun 2.2 21:38:06 10° WNW 21:41:53 53° SW 21:42:40 43° S visible
13 Jun 2.3 21:17:37 10° WNW 21:21:23 51° SW 21:22:43 34° SSE visible
14 Jun 2.3 20:57:08 10° WNW 21:00:52 50° SW 21:02:48 25° SSE visible
